#timestamp,LO_Frequency,Hit,StdDev 
1600200015.5,286047000.1,N
1600200035.3,286047002.2,N
1600200055.1,286047002.2,N
1600200075.9,286047002.8,N
1600200095.7,286047002.7,N
1600200115.6,286046999.7,N
1600200135.4,286047000.4,N
1600200155.2,286047001.1,N
1600200175.1,286047000.8,N
1600200176.0,286047000.8,N
1600200195.8,286046998.4,N
1600200215.7,286046996.9,N
1600200235.5,286046997.5,N
1600200255.3,286046995.5,N
1600200275.2,286046991.7,Y
1600200295.0,286046993.3,P
1600200295.9,286046993.3,N
1600200315.7,286046993.5,N
1600200335.6,286046994.2,N
1600200355.4,286046994.8,N
1600200375.3,286046994.5,N
1600200395.1,286046995.0,N
1600200396.0,286046995.0,N
1600200415.8,286046993.3,Y
1600200435.7,286046998.3,P
1600200455.5,286046997.0,N
1600200475.4,286046996.5,N
1600200495.2,286046997.3,N
1600200515.0,286046997.9,N
1600200515.9,286046997.9,N
1600200535.8,286046995.1,Y
1600200555.6,286046998.2,P
1600200575.5,286046998.6,N
1600200595.3,286047000.0,N
1600200615.1,286047000.4,N
1600200635.9,286046998.2,N
1600200655.7,286046996.5,Y
1600200675.6,286047000.0,P
1600200695.4,286047001.1,N
1600200715.2,286047000.9,N
1600200735.1,286046999.2,N
1600200736.0,286046999.2,N
1600200755.8,286046999.1,N
1600200775.6,286046998.7,N
1600200795.5,286046999.0,N
1600200815.3,286046996.6,Y
1600200835.2,286046996.6,P
1600200855.9,286046999.5,N
1600200875.7,286046999.1,N
1600200895.6,286046998.5,N
1600200915.4,286046998.1,N
1600200935.3,286046999.4,N
1600200955.1,286046998.1,N
1600200956.0,286046998.1,N
1600200975.8,286047000.4,N
1600200995.7,286046999.7,N
1600201015.5,286047002.2,N
1600201035.3,286047001.3,N
1600201055.2,286047003.5,N
1600201075.0,286047002.9,N
1600201075.9,286047002.9,N
1600201095.8,286047005.2,N
1600201115.6,286047005.2,N
1600201135.4,286047005.8,N
1600201155.3,286047004.6,N
1600201175.1,286047005.3,N
1600201195.9,286047005.7,N
1600201215.7,286047003.0,N
1600201235.5,286047001.4,N
1600201255.4,286047007.3,N
1600201275.2,286047003.0,N
1600201295.0,286047003.5,N
1600201296.0,286047003.5,N
1600201315.8,286047003.6,N
1600201335.6,286047002.9,N
1600201355.5,286047003.5,N
1600201375.3,286047005.5,N
1600201395.1,286047006.6,N
1600201415.9,286047007.7,N
1600201435.7,286047008.5,Y
1600201455.6,286047005.7,P
1600201475.4,286047007.2,P
1600201495.2,286047004.5,N
1600201515.1,286047004.9,Y
1600201516.0,286047004.9,P
1600201535.8,286047000.1,N
1600201555.7,286046998.2,N
1600201575.5,286046998.5,N
1600201595.3,286047001.2,N
1600201615.2,286047001.7,N
1600201635.0,286047000.8,N
1600201635.9,286047000.8,N
1600201655.7,286046999.9,N
1600201675.6,286046999.8,N
1600201695.4,286047000.4,N
1600201715.3,286046998.1,N
1600201735.1,286047000.0,N
1600201736.0,286047000.0,N
1600201755.8,286047002.3,N
1600201775.7,286047001.3,N
1600201795.5,286047004.0,N
1600201815.4,286047004.1,N
1600201835.2,286047000.6,N
1600201855.0,286047002.8,N
1600201855.9,286047002.8,N
1600201875.8,286047000.0,N
1600201895.6,286046998.7,N
1600201915.4,286046996.9,N
1600201935.3,286047000.6,N
1600201955.1,286046998.8,N
1600201975.9,286046998.8,N
1600201995.7,286047001.1,N
1600202015.5,286046998.8,N
1600202035.4,286046997.2,N
1600202055.2,286046997.7,N
1600202075.0,286046997.4,N
1600202075.9,286046997.4,N
1600202095.8,286046999.2,N
1600202115.6,286046999.6,N
1600202135.5,286046997.9,N
1600202155.3,286046998.9,N
1600202175.1,286047000.7,N
1600202195.9,286046998.9,N
1600202215.7,286046997.4,N
1600202235.5,286046996.7,N
1600202255.4,286046998.0,N
1600202275.2,286046995.6,N
1600202295.1,286046995.8,N
1600202296.0,286046995.8,N
1600202315.8,286046996.3,N
1600202335.6,286046997.5,N
1600202355.5,286046997.8,N
1600202375.3,286046997.2,N
1600202395.2,286046996.8,N
1600202415.9,286046999.4,N
1600202435.7,286046999.2,N
1600202455.6,286046997.6,N
1600202475.4,286046996.8,N
1600202495.2,286046995.3,Y
1600202515.1,286046994.9,P
1600202516.0,286046994.9,P
1600202535.8,286046994.1,P
1600202555.7,286046991.9,Y
1600202575.5,286047002.8,P
1600202595.3,286047006.0,N
1600202615.2,286047005.1,N
1600202635.0,286047001.8,N
1600202635.9,286047001.8,N
1600202655.8,286047003.3,N
1600202675.6,286047003.6,N
1600202695.4,286047003.7,N
1600202715.3,286047002.7,N
1600202735.1,286047002.5,N
1600202755.9,286047004.0,N
1600202775.7,286047003.9,N
1600202795.5,286047004.2,N
1600202815.4,286046999.9,N
1600202835.2,286047002.8,N
1600202855.0,286047004.4,N
1600202855.9,286047004.4,N
1600202875.8,286047002.9,N
1600202895.6,286047007.0,Y
1600202915.5,286047003.3,P
1600202935.3,286047005.2,P
1600202955.1,286047006.0,P
1600202975.9,286047005.9,Y
1600202995.7,286046998.1,P
1600203015.6,286046998.8,N
1600203035.4,286047000.9,N
1600203055.2,286047001.1,N
1600203075.1,286047001.2,N
1600203076.0,286047001.2,N
1600203095.8,286046996.6,N
1600203115.6,286046996.8,N
1600203135.5,286046995.4,N
1600203155.3,286046995.2,N
1600203175.2,286046995.4,N
1600203195.9,286046995.6,N
1600203215.7,286046997.8,N
1600203235.6,286046995.3,N
1600203255.4,286046998.0,N
1600203275.3,286046998.0,N
1600203295.1,286046995.1,N
1600203296.0,286046995.1,N
1600203315.8,286046996.0,N
1600203335.7,286046993.8,N
1600203355.5,286046996.1,N
1600203375.3,286046993.6,N
1600203395.2,286046996.1,N
1600203415.0,286046994.0,N
1600203415.9,286046994.0,N
1600203435.8,286046996.1,N
1600203455.6,286046995.5,N
1600203475.4,286046995.7,N
1600203495.3,286046994.9,N
1600203515.1,286046997.6,N
1600203535.8,286046999.6,N
1600203555.7,286046993.4,N
1600203575.5,286046994.9,N
1600203595.4,286046993.9,N
